RH
9 12 20 35 48 53 42 41 35 36 32 31 32 31 29 28 29 28 29 27 28 27 29 30 31 33 33 34 36 36 38 40
9 12 13 20 39 53 46 41 40 38 37 30 32 30 30 29 29 31 31 30 31 31 31 32 31 30 32 33 36 38 39 41
11 9 14 15 29 44 51 41 43 38 39 34 32 35 33 31 30 29 30 30 31 32 33 34 35 35 34 34 34 36 38 39
19 13 14 19 24 47 55 48 40 42 39 41 39 40 39 36 31 30 31 32 32 32 32 34 38 40 39 38 36 36 37 39
15 18 20 24 23 33 50 54 48 45 47 43 42 42 39 36 34 34 35 35 34 34 35 35 37 40 41 42 44 40 41 39
12 12 16 24 27 27 44 65 57 60 53 56 46 45 46 46 46 45 44 43 43 41 38 39 38 40 39 41 44 44 41 42
15 12 14 18 23 27 24 33 57 64 60 70 58 50 53 55 52 48 44 38 34 35 35 37 39 41 39 37 41 47 45 44
24 21 16 19 21 25 29 26 30 30 34 40 43 47 47 44 44 43 41 36 33 28 29 31 32 35 40 41 44 47 51 48
38 31 26 21 21 21 22 26 26 28 32 33 33 36 38 37 35 33 30 34 31 30 29 30 32 35 37 40 44 47 53 53
51 44 39 36 29 30 25 21 23 23 26 26 30 32 34 33 31 29 27 30 33 34 36 33 31 35 37 43 47 49 53 55
53 51 45 44 46 45 39 29 22 21 20 21 24 24 25 26 29 25 26 27 34 36 37 31 31 38 40 44 50 54 55 57
45 49 48 46 44 46 49 48 40 34 28 25 26 34 40 35 28 28 26 27 26 35 43 42 44 47 44 47 50 53 59 62
43 40 39 35 33 34 38 42 48 46 45 41 32 34 47 46 47 43 32 29 30 36 43 48 51 51 48 49 52 57 61 65
52 47 39 34 32 31 30 33 34 38 40 40 44 47 42 35 36 37 38 34 34 37 41 44 47 50 49 54 57 60 64 65
62 52 45 40 37 34 32 31 31 32 32 33 36 40 46 47 43 40 41 46 42 46 46 45 46 50 50 52 57 60 63 67
63 62 54 48 46 42 39 35 32 32 32 32 33 32 33 35 42 44 44 46 50 49 48 47 48 50 51 53 55 58 63 67
59 59 61 58 51 48 50 46 42 36 35 34 34 34 34 33 31 31 34 36 37 40 43 43 43 45 48 50 53 54 58 66
53 53 52 53 53 51 48 51 52 46 44 39 40 39 37 35 33 33 34 34 35 35 38 37 36 38 45 44 46 48 55 62
51 49 48 51 50 54 52 51 51 53 51 48 46 42 37 38 39 38 37 38 40 38 41 44 42 39 37 36 41 44 53 57